CAPE
0 0 0 0 0 0 0 0 0 0 0 0 0 0 0 0 0 0 0 0 1287 1600 1943 1965 1942 2011 1942 1701 1229 1112 1068 913 1158 1063 993 766 207 0 0 0 0 0 0 0
0 0 0 0 0 0 0 0 0 0 0 0 0 0 0 0 0 0 0 0 0 1235 1498 1650 1789 1885 2039 2000 1280 1277 1293 1399 1452 1181 455 36 0 0 0 0 0 0 0 0
0 0 0 0 0 0 0 0 0 0 0 0 0 0 0 0 0 0 0 0 0 167 891 1264 1434 1581 1752 1845 1755 1609 1522 1761 1753 1482 0 0 0 0 0 0 0 0 0 0
0 0 0 0 0 0 0 0 0 0 0 0 0 0 0 0 0 0 0 0 0 0 71 833 1110 1229 1334 1608 1878 1892 1811 1985 1933 695 0 0 0 0 0 0 0 0 0 0
0 0 0 0 0 0 0 0 0 0 0 0 0 0 0 0 0 0 0 0 0 0 5 608 862 1067 1197 1515 1698 2104 2010 2186 1855 214 0 0 0 0 0 0 0 0 0 0
0 0 0 0 0 0 0 0 0 0 0 0 0 0 0 0 0 0 0 0 0 0 2 441 791 1006 1096 1195 1468 2148 2213 2305 1594 222 6 0 0 0 0 0 0 0 0 0
0 0 0 0 0 0 0 0 0 0 0 0 0 0 0 0 0 0 0 0 0 0 0 124 566 742 958 1137 1281 1987 2521 2248 1359 227 31 0 0 0 0 0 0 0 0 0
0 0 0 0 0 0 0 0 0 0 0 0 0 0 0 0 0 0 0 0 0 0 0 0 212 444 743 1092 1278 1737 2404 2054 1286 234 36 0 0 0 0 0 0 0 0 0
0 0 0 0 0 0 0 0 0 13 0 0 0 0 0 0 0 0 0 0 0 0 0 0 6 268 402 792 1291 1651 2246 2079 1457 329 0 0 0 0 0 0 0 0 0 0
0 0 0 0 0 0 0 0 12 18 0 0 0 0 0 0 0 0 0 0 0 0 0 0 0 28 280 464 1031 1724 2111 2166 1610 403 13 0 0 0 0 0 0 0 0 0
0 1 0 0 0 0 0 0 7 35 38 7 0 0 0 0 0 0 0 0 0 0 0 0 0 0 58 239 636 1469 1828 1897 1643 389 45 0 0 0 0 0 0 0 0 0
0 0 0 0 0 0 2 0 0 0 1 20 17 6 0 0 0 3 0 0 0 0 0 0 0 0 0 27 142 416 1083 1249 1117 471 111 0 0 0 0 0 0 0 0 0
0 0 0 0 0 0 0 0 0 0 0 9 22 8 0 0 3 18 17 0 0 0 0 0 0 0 0 0 21 47 148 344 398 353 206 9 0 0 1 0 0 0 0 0
0 0 0 0 0 0 0 0 1 0 0 0 0 3 13 10 15 56 53 34 15 0 0 0 5 0 0 0 0 0 1 40 108 180 268 45 0 0 3 2 0 0 0 0
0 0 0 0 0 0 0 0 0 0 0 0 0 0 8 41 29 51 62 47 42 25 9 0 5 64 2 0 0 0 0 1 31 90 153 27 0 0 3 8 0 0 0 0
0 0 0 0 0 0 0 0 0 0 0 0 0 0 0 2 3 11 44 33 28 68 30 10 0 71 79 77 56 25 11 9 14 5 10 16 10 12 40 27 0 0 0 0
0 0 0 0 0 0 0 0 0 0 0 0 0 0 0 0 0 0 2 24 35 7 54 50 17 2 118 101 61 121 145 138 141 133 82 27 43 88 55 20 13 1 0 0
0 0 0 0 0 0 0 0 0 0 0 0 0 0 0 0 0 0 0 0 13 18 12 52 27 17 28 125 76 68 116 267 289 300 260 175 125 150 95 62 19 0 0 0
0 0 0 0 0 0 0 0 0 0 0 0 0 0 0 0 0 0 0 0 0 1 13 0 2 16 7 44 151 114 112 180 333 414 374 304 294 209 94 43 40 7 1 0
0 0 0 0 0 0 0 0 0 0 0 0 0 0 0 0 0 0 0 0 0 0 0 0 0 9 4 0 15 23 46 53 86 233 287 280 187 106 67 65 37 18 13 11
0 0 0 0 0 0 0 0 0 0 0 0 0 0 0 0 0 0 0 0 0 1 0 0 0 6 0 0 2 8 2 5 9 27 6 19 124 165 129 88 49 53 93 113
0 0 0 0 0 0 0 0 0 0 0 0 0 0 0 0 10 2 31 44 17 33 0 0 0 2 6 0 0 1 0 0 0 0 6 13 42 54 71 81 62 54 20 1
0 0 0 0 0 0 0 0 0 0 0 0 0 0 0 0 0 0 0 24 22 17 29 12 0 0 0 0 0 0 1 1 4 0 0 1 7 28 62 65 37 6 0 0
0 0 0 0 0 0 0 0 0 0 0 0 0 0 0 0 0 0 0 0 22 22 37 68 29 13 3 16 1 0 0 0 0 0 0 18 0 0 0 13 13 0 2 0
0 0 0 0 0 0 0 0 0 0 0 0 0 0 0 0 0 0 0 0 1 7 13 26 38 52 23 17 74 40 0 0 0 0 0 0 1 5 0 0 0 0 15 0
0 0 0 0 0 0 0 0 0 0 0 0 0 0 0 0 0 0 0 0 0 2 49 24 42 32 61 32 25 77 99 102 73 61 71 52 28 13 3 4 0 0 0 0
CIN
-0 -0 -0 -0 -0 -0 -0 -0 -0 -0 -0 -0 -0 -0 -0 -0 -0 -0 -4 -0 -37 -82 -97 -84 -94 -98 -55 -55 -50 -60 -54 -119 -144 -151 -127 -118 -196 -0 -0 -0 -0 -0 -0 -0
-0 -0 -0 -0 -0 -0 -0 -0 -0 -0 -0 -0 -0 -0 -0 -0 -0 -0 -2 -11 -0 -52 -66 -42 -49 -113 -98 -49 -62 -50 -83 -157 -127 -133 -230 -236 -0 -0 -0 -0 -0 -0 -0 -0
-0 -0 -0 -0 -0 -0 -0 -0 -0 -0 -0 -0 -0 -0 -0 -0 -0 -0 -0 -0 -0 -154 -78 -72 -58 -212 -174 -134 -64 -59 -80 -131 -116 -112 -0 -0 -0 -0 -0 -0 -0 -0 -0 -0
-0 -0 -0 -0 -0 -0 -0 -0 -0 -0 -0 -0 -0 -0 -0 -0 -0 -0 -0 -0 -0 -0 -345 -307 -224 -200 -151 -172 -104 -57 -132 -113 -100 -166 -0 -0 -0 -0 -0 -0 -0 -0 -0 -0
-0 -0 -0 -0 -0 -0 -0 -0 -0 -0 -0 -0 -0 -0 -0 -0 -0 -0 -0 -0 -0 -0 -59 -325 -283 -57 -75 -144 -142 -124 -70 -83 -93 -149 -0 -0 -0 -0 -0 -0 -0 -0 -0 -0
-0 -0 -0 -0 -0 -0 -0 -0 -0 -0 -0 -0 -0 -0 -0 -0 -0 -0 -0 -0 -0 -0 -67 -378 -335 -206 -109 -100 -101 -125 -82 -75 -103 -150 -152 -0 -0 -0 -0 -0 -0 -0 -0 -0
-0 -0 -0 -0 -0 -0 -0 -0 -0 -0 -0 -0 -0 -0 -0 -0 -0 -0 -0 -0 -0 -0 -0 -381 -314 -271 -153 -112 -115 -129 -94 -106 -98 -175 -240 -0 -0 -0 -0 -0 -0 -0 -0 -0
-0 -0 -0 -0 -0 -0 -0 -0 -0 -0 -0 -0 -0 -0 -0 -0 -0 -0 -0 -0 -0 -0 -0 -0 -393 -344 -220 -115 -84 -116 -103 -83 -102 -149 -248 -0 -0 -0 -0 -0 -0 -0 -0 -0
-0 -0 -0 -0 -0 -0 -0 -0 -1 -14 -0 -0 -0 -0 -0 -0 -0 -0 -0 -0 -0 -0 -0 -0 -267 -373 -326 -202 -117 -107 -89 -94 -97 -144 -12 -0 -0 -0 -0 -0 -0 -0 -0 -0
-0 -0 -0 -0 -0 -0 -0 -2 -28 -15 -0 -0 -0 -0 -0 -0 -0 -0 -0 -0 -0 -0 -0 -0 -0 -451 -374 -313 -145 -84 -77 -89 -113 -149 -84 -0 -0 -0 -0 -0 -0 -0 -0 -0
-0 -2 -0 -0 -0 -0 -0 -6 -18 -30 -7 -1 -0 -0 -0 -0 -0 -0 -0 -0 -0 -0 -0 -0 -0 -0 -529 -378 -276 -135 -96 -103 -115 -155 -121 -0 -0 -0 -0 -0 -0 -0 -0 -0
-0 -0 -0 -0 -0 -0 -6 -0 -0 -2 -3 -16 -5 -4 -0 -0 -0 -89 -0 -0 -0 -0 -0 -0 -0 -0 -0 -546 -390 -287 -150 -127 -131 -164 -142 -0 -0 -74 -0 -0 -0 -0 -0 -0
-0 -0 -0 -0 -0 -0 -0 -0 -0 -0 -0 -23 -11 -6 -0 -10 -38 -45 -41 -6 -0 -0 -0 -0 -0 -0 -0 -0 -575 -457 -335 -227 -188 -170 -141 -59 -0 -150 -454 -0 -0 -0 -0 -0
-0 -0 -0 -0 -0 -0 -0 -0 -0 -0 -0 -0 -0 -38 -10 -5 -29 -22 -29 -30 -19 -0 -0 -0 -190 -0 -0 -0 -0 -0 -75 -529 -417 -281 -166 -102 -0 -0 -432 -388 -0 -0 -0 -0
-0 -0 -0 -0 -0 -0 -0 -0 -0 -0 -0 -0 -0 -0 -39 -15 -8 -9 -25 -46 -69 -21 -14 -0 -299 -302 -442 -0 -0 -0 -0 -359 -615 -446 -204 -122 -0 -271 -377 -328 -0 -0 -0 -0
-0 -0 -0 -0 -0 -0 -0 -0 -0 -0 -0 -0 -0 -0 -0 -24 -45 -25 -7 -19 -54 -60 -80 -29 -0 -161 -239 -368 -457 -484 -592 -600 -587 -527 -247 -552 -393 -352 -310 -300 -27 -0 -0 -0
-0 -0 -0 -0 -0 -0 -0 -0 -0 -0 -0 -0 -0 -0 -0 -0 -0 -0 -24 -11 -10 -57 -42 -46 -38 -166 -107 -169 -209 -337 -328 -359 -433 -429 -355 -275 -357 -195 -285 -220 -272 -315 -0 -0
-0 -0 -0 -0 -0 -0 -0 -0 -0 -0 -0 -0 -0 -0 -0 -0 -0 -0 -0 -2 -19 -12 -41 -35 -43 -62 -126 -69 -102 -116 -208 -228 -246 -289 -296 -243 -240 -160 -196 -189 -223 -0 -0 -0
-0 -0 -0 -0 -0 -0 -0 -0 -0 -0 -0 -0 -0 -0 -0 -0 -0 -0 -0 -0 -0 -5 -14 -0 -7 -62 -39 -25 -39 -63 -83 -81 -161 -127 -166 -188 -132 -118 -141 -165 -200 -156 -157 -0
-0 -0 -0 -0 -0 -0 -0 -0 -0 -0 -0 -0 -0 -0 -0 -0 -0 -0 -0 -0 -0 -0 -0 -0 -0 -32 -33 -0 -8 -12 -35 -21 -45 -58 -79 -83 -74 -60 -89 -120 -121 -124 -150 -153
-0 -0 -0 -0 -0 -0 -0 -0 -0 -0 -0 -0 -0 -0 -0 -0 -0 -0 -0 -0 -0 -40 -0 -0 -0 -1 -1 -0 -0 -3 -5 -6 -17 -67 -63 -51 -24 -50 -47 -32 -106 -97 -89 -84
-0 -0 -0 -0 -0 -0 -0 -0 -0 -0 -0 -0 -0 -0 -0 -2 -21 -5 -13 -22 -25 -23 -0 -0 -0 -62 -1 -0 -0 -1 -6 -0 -0 -0 -21 -11 -8 -16 -25 -28 -34 -62 -91 -54
-0 -0 -0 -0 -0 -0 -0 -0 -0 -0 -0 -0 -0 -0 -0 -0 -0 -0 -4 -8 -3 -9 -8 -26 -0 -0 -0 -0 -0 -0 -1 -0 -6 -0 -0 -6 -1 -5 -5 -15 -41 -64 -0 -0
-0 -0 -0 -0 -0 -0 -0 -0 -0 -0 -0 -0 -0 -1 -0 -0 -0 -0 -0 -12 -3 -0 -5 -1 -13 -20 -52 -55 -11 -0 -0 -0 -0 -0 -0 -12 -1 -0 -0 -26 -57 -0 -67 -0
-0 -0 -0 -0 -0 -0 -0 -0 -0 -0 -0 -0 -0 -0 -6 -0 -0 -0 -0 -0 -6 -11 -1 -7 -1 -3 -2 -56 -42 -45 -0 -0 -0 -0 -0 -0 -4 -88 -0 -0 -0 -2 -25 -0
-0 -0 -0 -0 -0 -0 -0 -0 -0 -0 -0 -0 -0 -0 -0 -0 -0 -0 -0 -0 -0 -12 -0 -3 -0 -0 -40 -77 -52 -26 -20 -13 -13 -4 -2 -2 -10 -31 -43 -96 -0 -0 -0 -0
Wind_Speed
nan nan nan nan nan nan nan nan nan nan nan nan nan nan nan nan nan nan nan nan 49 32 32 39 34 32 36 29 26 25 26 24 29 27 28 28 27 nan nan nan nan nan nan nan
nan nan nan nan nan nan nan nan nan nan nan nan nan nan nan nan nan nan nan nan nan 41 42 46 48 34 30 30 27 23 23 27 25 27 27 nan nan nan nan nan nan nan nan nan
nan nan nan nan nan nan nan nan nan nan nan nan nan nan nan nan nan nan nan nan nan 36 38 44 41 32 34 28 26 24 28 34 31 32 nan nan nan nan nan nan nan nan nan nan
nan nan nan nan nan nan nan nan nan nan nan nan nan nan nan nan nan nan nan nan nan nan nan 30 42 42 33 23 25 27 32 36 35 36 nan nan nan nan nan nan nan nan nan nan
nan nan nan nan nan nan nan nan nan nan nan nan nan nan nan nan nan nan nan nan nan nan nan 32 23 36 38 36 29 28 31 35 40 36 nan nan nan nan nan nan nan nan nan nan
nan nan nan nan nan nan nan nan nan nan nan nan nan nan nan nan nan nan nan nan nan nan nan 33 25 27 30 33 29 31 32 37 42 36 nan nan nan nan nan nan nan nan nan nan
nan nan nan nan nan nan nan nan nan nan nan nan nan nan nan nan nan nan nan nan nan nan nan 33 31 24 23 28 30 32 30 31 29 31 nan nan nan nan nan nan nan nan nan nan
nan nan nan nan nan nan nan nan nan nan nan nan nan nan nan nan nan nan nan nan nan nan nan nan 32 30 34 26 26 25 24 23 29 31 nan nan nan nan nan nan nan nan nan nan
nan nan nan nan nan nan nan nan nan nan nan nan nan nan nan nan nan nan nan nan nan nan nan nan nan 35 32 30 22 19 25 23 26 31 nan nan nan nan nan nan nan nan nan nan
nan nan nan nan nan nan nan nan nan nan nan nan nan nan nan nan nan nan nan nan nan nan nan nan nan nan 36 34 29 26 25 26 26 33 nan nan nan nan nan nan nan nan nan nan
nan nan nan nan nan nan nan nan nan nan nan nan nan nan nan nan nan nan nan nan nan nan nan nan nan nan nan 35 33 30 28 28 29 28 nan nan nan nan nan nan nan nan nan nan
nan nan nan nan nan nan nan nan nan nan nan nan nan nan nan nan nan nan nan nan nan nan nan nan nan nan nan nan 36 32 29 27 28 31 37 nan nan nan nan nan nan nan nan nan
nan nan nan nan nan nan nan nan nan nan nan nan nan nan nan nan nan nan nan nan nan nan nan nan nan nan nan nan nan nan 37 35 35 39 41 nan nan nan nan nan nan nan nan nan
nan nan nan nan nan nan nan nan nan nan nan nan nan nan nan nan nan nan nan nan nan nan nan nan nan nan nan nan nan nan nan nan 43 45 46 nan nan nan nan nan nan nan nan nan
nan nan nan nan nan nan nan nan nan nan nan nan nan nan nan nan nan nan nan nan nan nan nan nan nan nan nan nan nan nan nan nan nan nan 54 nan nan nan nan nan nan nan nan nan
nan nan nan nan nan nan nan nan nan nan nan nan nan nan nan nan nan nan nan nan nan nan nan nan nan nan nan nan nan nan nan nan nan nan nan nan nan nan nan nan nan nan nan nan
nan nan nan nan nan nan nan nan nan nan nan nan nan nan nan nan nan nan nan nan nan nan nan nan nan nan 59 58 nan 57 58 59 59 55 nan nan nan nan nan nan nan nan nan nan
nan nan nan nan nan nan nan nan nan nan nan nan nan nan nan nan nan nan nan nan nan nan nan nan nan nan nan 63 nan nan 54 58 55 54 57 56 57 62 nan nan nan nan nan nan
nan nan nan nan nan nan nan nan nan nan nan nan nan nan nan nan nan nan nan nan nan nan nan nan nan nan nan nan 64 60 63 58 58 56 55 56 59 57 nan nan nan nan nan nan
nan nan nan nan nan nan nan nan nan nan nan nan nan nan nan nan nan nan nan nan nan nan nan nan nan nan nan nan nan nan nan nan nan 66 60 62 63 64 nan nan nan nan nan nan
nan nan nan nan nan nan nan nan nan nan nan nan nan nan nan nan nan nan nan nan nan nan nan nan nan nan nan nan nan nan nan nan nan nan nan nan 66 51 53 nan nan nan nan 41
nan nan nan nan nan nan nan nan nan nan nan nan nan nan nan nan nan nan nan nan nan nan nan nan nan nan nan nan nan nan nan nan nan nan nan nan nan nan nan nan nan nan nan nan
nan nan nan nan nan nan nan nan nan nan nan nan nan nan nan nan nan nan nan nan nan nan nan nan nan nan nan nan nan nan nan nan nan nan nan nan nan nan nan nan nan nan nan nan
nan nan nan nan nan nan nan nan nan nan nan nan nan nan nan nan nan nan nan nan nan nan nan nan nan nan nan nan nan nan nan nan nan nan nan nan nan nan nan nan nan nan nan nan
nan nan nan nan nan nan nan nan nan nan nan nan nan nan nan nan nan nan nan nan nan nan nan nan nan nan nan nan nan nan nan nan nan nan nan nan nan nan nan nan nan nan nan nan
nan nan nan nan nan nan nan nan nan nan nan nan nan nan nan nan nan nan nan nan nan nan nan nan nan nan nan nan nan nan nan 73 nan nan nan nan nan nan nan nan nan nan nan nan
Wind_Direction
nan nan nan nan nan nan nan nan nan nan nan nan nan nan nan nan nan nan nan nan 220 223 227 233 225 222 231 246 248 257 259 259 259 257 257 256 262 nan nan nan nan nan nan nan
nan nan nan nan nan nan nan nan nan nan nan nan nan nan nan nan nan nan nan nan nan 225 231 236 243 236 238 258 252 262 300 290 272 264 262 nan nan nan nan nan nan nan nan nan
nan nan nan nan nan nan nan nan nan nan nan nan nan nan nan nan nan nan nan nan nan 258 254 252 249 249 242 258 270 281 300 295 286 271 nan nan nan nan nan nan nan nan nan nan
nan nan nan nan nan nan nan nan nan nan nan nan nan nan nan nan nan nan nan nan nan nan nan 273 261 264 263 265 279 291 291 294 280 280 nan nan nan nan nan nan nan nan nan nan
nan nan nan nan nan nan nan nan nan nan nan nan nan nan nan nan nan nan nan nan nan nan nan 274 282 277 285 271 282 283 272 277 278 287 nan nan nan nan nan nan nan nan nan nan
nan nan nan nan nan nan nan nan nan nan nan nan nan nan nan nan nan nan nan nan nan nan nan 268 271 265 271 268 262 265 278 279 274 285 nan nan nan nan nan nan nan nan nan nan
nan nan nan nan nan nan nan nan nan nan nan nan nan nan nan nan nan nan nan nan nan nan nan 251 259 254 246 267 267 265 273 276 281 294 nan nan nan nan nan nan nan nan nan nan
nan nan nan nan nan nan nan nan nan nan nan nan nan nan nan nan nan nan nan nan nan nan nan nan 263 256 268 271 270 274 275 277 284 297 nan nan nan nan nan nan nan nan nan nan
nan nan nan nan nan nan nan nan nan nan nan nan nan nan nan nan nan nan nan nan nan nan nan nan nan 251 243 241 251 269 284 283 274 288 nan nan nan nan nan nan nan nan nan nan
nan nan nan nan nan nan nan nan nan nan nan nan nan nan nan nan nan nan nan nan nan nan nan nan nan nan 242 244 237 236 255 280 284 278 nan nan nan nan nan nan nan nan nan nan
nan nan nan nan nan nan nan nan nan nan nan nan nan nan nan nan nan nan nan nan nan nan nan nan nan nan nan 241 244 249 245 262 261 268 nan nan nan nan nan nan nan nan nan nan
nan nan nan nan nan nan nan nan nan nan nan nan nan nan nan nan nan nan nan nan nan nan nan nan nan nan nan nan 251 252 257 267 254 251 261 nan nan nan nan nan nan nan nan nan
nan nan nan nan nan nan nan nan nan nan nan nan nan nan nan nan nan nan nan nan nan nan nan nan nan nan nan nan nan nan 255 261 242 244 245 nan nan nan nan nan nan nan nan nan
nan nan nan nan nan nan nan nan nan nan nan nan nan nan nan nan nan nan nan nan nan nan nan nan nan nan nan nan nan nan nan nan 242 254 247 nan nan nan nan nan nan nan nan nan
nan nan nan nan nan nan nan nan nan nan nan nan nan nan nan nan nan nan nan nan nan nan nan nan nan nan nan nan nan nan nan nan nan nan 250 nan nan nan nan nan nan nan nan nan
nan nan nan nan nan nan nan nan nan nan nan nan nan nan nan nan nan nan nan nan nan nan nan nan nan nan nan nan nan nan nan nan nan nan nan nan nan nan nan nan nan nan nan nan
nan nan nan nan nan nan nan nan nan nan nan nan nan nan nan nan nan nan nan nan nan nan nan nan nan nan 221 224 nan 234 240 237 239 246 nan nan nan nan nan nan nan nan nan nan
nan nan nan nan nan nan nan nan nan nan nan nan nan nan nan nan nan nan nan nan nan nan nan nan nan nan nan 220 nan nan 232 228 229 233 240 244 248 251 nan nan nan nan nan nan
nan nan nan nan nan nan nan nan nan nan nan nan nan nan nan nan nan nan nan nan nan nan nan nan nan nan nan nan 225 229 232 235 230 231 237 242 245 246 nan nan nan nan nan nan
nan nan nan nan nan nan nan nan nan nan nan nan nan nan nan nan nan nan nan nan nan nan nan nan nan nan nan nan nan nan nan nan nan 228 230 238 244 251 nan nan nan nan nan nan
nan nan nan nan nan nan nan nan nan nan nan nan nan nan nan nan nan nan nan nan nan nan nan nan nan nan nan nan nan nan nan nan nan nan nan nan 246 256 249 nan nan nan nan 262
nan nan nan nan nan nan nan nan nan nan nan nan nan nan nan nan nan nan nan nan nan nan nan nan nan nan nan nan nan nan nan nan nan nan nan nan nan nan nan nan nan nan nan nan
nan nan nan nan nan nan nan nan nan nan nan nan nan nan nan nan nan nan nan nan nan nan nan nan nan nan nan nan nan nan nan nan nan nan nan nan nan nan nan nan nan nan nan nan
nan nan nan nan nan nan nan nan nan nan nan nan nan nan nan nan nan nan nan nan nan nan nan nan nan nan nan nan nan nan nan nan nan nan nan nan nan nan nan nan nan nan nan nan
nan nan nan nan nan nan nan nan nan nan nan nan nan nan nan nan nan nan nan nan nan nan nan nan nan nan nan nan nan nan nan nan nan nan nan nan nan nan nan nan nan nan nan nan
nan nan nan nan nan nan nan nan nan nan nan nan nan nan nan nan nan nan nan nan nan nan nan nan nan nan nan nan nan nan nan 252 nan nan nan nan nan nan nan nan nan nan nan nan